{"data":{"norad_id":64123,"intl_designator":"2025-111A","name":"STARLINK-11727 [DTC]","alt_names":[],"object_type":"PAYLOAD","status":"ACTIVE","operator":null,"country":"US","launch_date":"2025-05-24","launch_site_code":"AFETR","launch_vehicle":null,"mission":null,"orbit_class":"UNKNOWN","rcs_meters":null,"size_class":null,"mass_kg":null,"dimensions":null,"purposes":["comms"],"wikipedia_slug":null,"has_3d_model":false,"image_url":null,"decayed_at":null,"tle_current":{"epoch":"2026-05-24T17:21:26.478432Z","epoch_age_seconds":95793,"freshness":"FRESH","line1":"1 64123U 25111A   26144.72322313  .00159550  00000+0  12209-2 0  9996","line2":"2 64123  43.0017 235.8657 0002300 271.1346  88.9259 15.70883240 58594","mean_motion":15.7088324,"eccentricity":0.00023,"inclination_deg":43.0017,"raan_deg":235.8657,"arg_perigee_deg":271.1346,"mean_anomaly_deg":88.9259,"bstar":0.0012209,"rev_number":5859,"period_min":91.668175159855,"perigee_km":354.82253944139,"apogee_km":357.92041334053,"semimajor_km":6734.508476391,"source":"CELESTRAK","updated_at":"2026-05-25T13:38:20.270605Z"}}}